Jonesville, VA

5:51 PM EST on February 22, 2017 (GMT -0500)
Jonesville

Weather History for K0VG - January, 2013

Change the Weather History Date:

Thursday, January 24, 2013

  Actual Average (KLNP) Record (KLNP)
Temperature  
Mean Temperature 28 °F -  
Max Temperature 39 °F 38 °F 55 °F (2002)
Min Temperature 17 °F 22 °F -4 °F (2014)
Degree Days  
Heating Degree Days 37    
Moisture  
Dew Point 8 °F    
Average Humidity 46    
Maximum Humidity 86    
Minimum Humidity 23    
Precipitation  
Precipitation 0.00 in - - ()
Sea Level Pressure  
Sea Level Pressure 30.32 in    
Wind  
Wind Speed 6 mph (NNW)    
Max Wind Speed 17 mph    
Max Gust Speed 26 mph    
Visibility 10 miles    
Events      
Averages and records for this station are not official NWS values.
T = Trace of Precipitation, MM = Missing Value Source: NWS Daily Summary

Daily Weather History Graph

Daily Weather History Graph

Search for Another Location

Airport or City:

Trip Planner

Search our weather history database for the weather conditions in past years. The results will help you decide how hot, cold, wet, or windy it might be!

Date:

Astronomy

Jan. 24, 2013 Rise Set
Actual Time 7:40 AM EST 5:50 PM EST
Civil Twilight 7:12 AM EST 6:18 PM EST
Nautical Twilight 6:41 AM EST 6:49 PM EST
Astronomical Twilight 6:10 AM EST 7:20 PM EST
Moon 3:52 PM EST (1/24) 5:35 AM EST (1/24)
Length of Visible Light 11h 05m
Length of Day
10h 10m
Waxing Gibbous, 94% of the Moon is Illuminated
Jan 24
Waxing Gibbous
Jan 26
Full
Feb 3
Last Quarter
Feb 10
New
Feb 17
First Quarter

Hourly Weather History & Observations

Time (EST) Temp. Windchill Dew Point Humidity Pressure Visibility Wind Dir Wind Speed Gust Speed Precip Events Conditions
12:15 AM 26.6 °F - 21.2 °F 80% 30.09 in 10.0 mi Calm Calm - N/A   Overcast
12:35 AM 26.6 °F - 21.2 °F 80% 30.09 in 10.0 mi Calm Calm - N/A   Overcast
12:55 AM 26.6 °F - 21.2 °F 80% 30.09 in 10.0 mi Calm Calm - N/A   Unknown
1:15 AM 26.6 °F - 23.0 °F 86% 30.09 in 10.0 mi Calm Calm - N/A   Overcast
1:35 AM 32.0 °F 20.8 °F 24.8 °F 75% 30.09 in 10.0 mi WNW 17.3 mph 26.5 mph N/A   Overcast
1:55 AM 39.2 °F 33.0 °F 28.4 °F 65% 30.10 in 10.0 mi West 9.2 mph 19.6 mph N/A   Overcast
2:15 AM 37.4 °F 29.8 °F 24.8 °F 60% 30.11 in 10.0 mi West 11.5 mph 17.3 mph N/A   Overcast
2:55 AM 37.4 °F 29.8 °F 23.0 °F 56% 30.13 in 10.0 mi West 11.5 mph 20.7 mph N/A   Unknown
3:15 AM 35.6 °F 28.6 °F 23.0 °F 60% 30.14 in 10.0 mi West 9.2 mph 18.4 mph N/A   Unknown
3:35 AM 35.6 °F 28.0 °F 21.2 °F 56% 30.15 in 10.0 mi West 10.4 mph 17.3 mph N/A   Overcast
3:55 AM 33.8 °F 27.0 °F 19.4 °F 56% 30.16 in 10.0 mi West 8.1 mph - N/A   Overcast
4:15 AM 32.0 °F 24.8 °F 19.4 °F 60% 30.16 in 10.0 mi WNW 8.1 mph 18.4 mph N/A   Overcast
4:35 AM 32.0 °F 22.5 °F 17.6 °F 55% 30.17 in 10.0 mi West 12.7 mph 16.1 mph N/A   Overcast
4:55 AM 32.0 °F 25.6 °F 17.6 °F 55% 30.18 in 10.0 mi WNW 6.9 mph - N/A   Overcast
5:15 AM 32.0 °F 23.6 °F 17.6 °F 55% 30.18 in 10.0 mi NW 10.4 mph - N/A   Overcast
5:35 AM 32.0 °F 23.6 °F 17.6 °F 55% 30.20 in 10.0 mi NW 10.4 mph - N/A   Overcast
5:55 AM 30.2 °F 21.9 °F 15.8 °F 55% 30.22 in 10.0 mi NW 9.2 mph - N/A   Overcast
6:15 AM 30.2 °F 22.6 °F 15.8 °F 55% 30.22 in 10.0 mi WNW 8.1 mph - N/A   Overcast
6:35 AM 28.4 °F 19.1 °F 15.8 °F 59% 30.23 in 10.0 mi NNW 10.4 mph - N/A   Overcast
6:55 AM 28.4 °F 18.5 °F 15.8 °F 59% 30.25 in 10.0 mi NW 11.5 mph - N/A   Overcast
7:15 AM 28.4 °F 19.7 °F 15.8 °F 59% 30.27 in 10.0 mi North 9.2 mph - N/A   Overcast
7:35 AM 28.4 °F 19.1 °F 14.0 °F 55% 30.29 in 10.0 mi NNW 10.4 mph - N/A   Overcast
7:55 AM 26.6 °F 16.8 °F 14.0 °F 59% 30.30 in 10.0 mi North 10.4 mph - N/A   Overcast
8:15 AM 26.6 °F 19.1 °F 12.2 °F 55% 30.32 in 10.0 mi NNW 6.9 mph - N/A   Mostly Cloudy
8:35 AM 26.6 °F 18.2 °F 14.0 °F 59% 30.33 in 10.0 mi North 8.1 mph - N/A   Mostly Cloudy
8:55 AM 24.8 °F 16.9 °F 10.4 °F 54% 30.35 in 10.0 mi NNW 6.9 mph - N/A   Overcast
9:15 AM 24.8 °F 12.9 °F 8.6 °F 50% 30.37 in 10.0 mi NNW 13.8 mph 18.4 mph N/A   Partly Cloudy
9:35 AM 24.8 °F 16.1 °F 6.8 °F 46% 30.38 in 10.0 mi NW 8.1 mph - N/A   Clear
9:55 AM 24.8 °F 16.1 °F 5.0 °F 43% 30.39 in 10.0 mi NW 8.1 mph - N/A   Clear
10:15 AM 24.8 °F 16.9 °F 5.0 °F 43% 30.39 in 10.0 mi NNW 6.9 mph - N/A   Clear
10:35 AM 26.6 °F 19.1 °F 1.4 °F 34% 30.40 in 10.0 mi NNW 6.9 mph - N/A   Clear
10:55 AM 26.6 °F 16.8 °F 1.4 °F 34% 30.41 in 10.0 mi North 10.4 mph 16.1 mph N/A   Clear
11:15 AM 26.6 °F 18.2 °F 1.4 °F 34% 30.42 in 10.0 mi NNW 8.1 mph - N/A   Clear
11:35 AM 26.6 °F 18.2 °F 1.4 °F 34% 30.42 in 10.0 mi NNW 8.1 mph - N/A   Clear
11:55 AM 28.4 °F 19.1 °F 1.4 °F 31% 30.42 in 10.0 mi NW 10.4 mph - N/A   Clear
12:15 PM 28.4 °F 21.2 °F 1.4 °F 31% 30.42 in 10.0 mi NNW 6.9 mph - N/A   Clear
12:35 PM 28.4 °F 19.7 °F 1.4 °F 31% 30.41 in 10.0 mi NNW 9.2 mph 16.1 mph N/A   Clear
12:55 PM 28.4 °F 20.4 °F 1.4 °F 31% 30.41 in 10.0 mi NNW 8.1 mph 18.4 mph N/A   Clear
1:15 PM 28.4 °F 19.1 °F -0.4 °F 29% 30.41 in 10.0 mi NW 10.4 mph - N/A   Clear
1:35 PM 30.2 °F 22.6 °F -0.4 °F 27% 30.40 in 10.0 mi NNW 8.1 mph - N/A   Clear
1:55 PM 30.2 °F 21.9 °F -0.4 °F 27% 30.39 in 10.0 mi North 9.2 mph - N/A   Clear
2:35 PM 32.0 °F 28.7 °F -2.2 °F 23% 30.39 in 10.0 mi North 3.5 mph - N/A   Clear
2:55 PM 32.0 °F 26.4 °F -2.2 °F 23% 30.40 in 10.0 mi North 5.8 mph - N/A   Clear
3:15 PM 32.0 °F 27.5 °F -2.2 °F 23% 30.40 in 10.0 mi NNW 4.6 mph - N/A   Clear
3:35 PM 30.2 °F 24.3 °F -2.2 °F 25% 30.40 in 10.0 mi NNW 5.8 mph - N/A   Clear
3:55 PM 32.0 °F 28.7 °F -2.2 °F 23% 30.41 in 10.0 mi NE 3.5 mph - N/A   Clear
4:15 PM 32.0 °F 28.7 °F -2.2 °F 23% 30.41 in 10.0 mi North 3.5 mph - N/A   Clear
4:35 PM 30.2 °F 26.7 °F -2.2 °F 25% 30.41 in 10.0 mi NNE 3.5 mph - N/A   Clear
4:55 PM 30.2 °F 25.4 °F -0.4 °F 27% 30.41 in 10.0 mi North 4.6 mph - N/A   Clear
5:15 PM 28.4 °F 23.3 °F -0.4 °F 29% 30.42 in 10.0 mi NNW 4.6 mph - N/A   Clear
5:35 PM 28.4 °F 23.3 °F -0.4 °F 29% 30.41 in 10.0 mi North 4.6 mph - N/A   Clear
5:55 PM 26.6 °F - -0.4 °F 31% 30.42 in 10.0 mi Calm Calm - N/A   Clear
6:35 PM 24.8 °F - -0.4 °F 34% 30.44 in 10.0 mi Calm Calm - N/A   Partly Cloudy
6:55 PM 24.8 °F - -0.4 °F 34% 30.43 in 10.0 mi Calm Calm - N/A   Partly Cloudy
7:15 PM 23.0 °F - 1.4 °F 39% 30.44 in 10.0 mi Calm Calm - N/A   Partly Cloudy
7:35 PM 23.0 °F - 5.0 °F 46% 30.44 in 10.0 mi Calm Calm - N/A   Clear
7:55 PM 23.0 °F - 5.0 °F 46% 30.43 in 10.0 mi Calm Calm - N/A   Clear
8:15 PM 23.0 °F 18.4 °F 3.2 °F 43% 30.43 in 10.0 mi ENE 3.5 mph - N/A   Clear
8:35 PM 23.0 °F 14.7 °F 1.4 °F 39% 30.41 in 10.0 mi East 6.9 mph - N/A   Clear
8:55 PM 23.0 °F 14.7 °F 1.4 °F 39% 30.41 in 10.0 mi ENE 6.9 mph - N/A   Clear
9:15 PM 23.0 °F 13.9 °F 1.4 °F 39% 30.40 in 10.0 mi ENE 8.1 mph - N/A   Clear
9:35 PM 23.0 °F 17.0 °F 1.4 °F 39% 30.40 in 10.0 mi ENE 4.6 mph - N/A   Clear
9:55 PM 21.2 °F - 1.4 °F 42% 30.40 in 10.0 mi Calm Calm - N/A   Clear
10:15 PM 21.2 °F - 1.4 °F 42% 30.40 in 10.0 mi Calm Calm - N/A   Clear
10:35 PM 19.4 °F 14.3 °F 5.0 °F 54% 30.39 in 10.0 mi NE 3.5 mph - N/A   Clear
10:55 PM 17.6 °F - 3.2 °F 53% 30.39 in 10.0 mi Calm Calm - N/A   Clear
11:15 PM 19.4 °F - 1.4 °F 46% 30.38 in 10.0 mi Calm Calm - N/A   Clear
11:35 PM 17.6 °F 12.3 °F 5.0 °F 58% 30.38 in 10.0 mi NE 3.5 mph - N/A   Clear
11:55 PM 19.4 °F 14.3 °F 5.0 °F 54% 30.37 in 10.0 mi ENE 3.5 mph - N/A   Clear